Location: Gokavaram
(16.9752°N, 81.0696°E)
Time: 13:23:33
(UTC+00:00)

SL-4 R/B - Pass Details

Date: 15 May 2026
Orbit: 378 x 503 km, 51.6° (Epoch: 10 June)

Event Time Altitude Azimuth Distance (km) Brightness Sun altitude
Rises 14:39:01 0° 323° (NW) 2,568 6.6 -22.4°
Reaches altitude 10° 14:41:11 10° 324° (NW) 1,696 5.4 -22.8°
Enters shadow 14:44:33 65° 338° (NNW) 552 2.1 -23.5°
